SCP
0 0 0 0 0 0 0 0 0 1 1 1 2 4 5 6 7 7 7 7 7 8 7 6 5 4 4 4 4 4 4 3 3 2 2 2 3 3 4 6 8 7 5 4
0 0 0 0 0 0 0 0 1 1 2 2 3 5 6 6 6 6 6 6 6 7 7 5 4 4 4 4 4 4 4 4 3 3 2 3 3 3 4 6 7 7 6 5
0 0 0 0 0 0 0 1 2 2 2 3 4 5 6 6 6 6 6 5 5 6 5 4 4 4 5 5 4 4 4 4 4 4 4 4 4 4 4 5 6 6 6 6
0 0 0 0 0 0 1 2 2 2 3 4 5 6 5 4 5 6 6 5 5 5 4 5 5 6 7 7 6 5 4 4 5 6 6 6 7 6 5 5 5 5 5 6
0 0 0 0 0 1 2 3 4 4 4 4 5 6 5 4 4 6 6 5 5 4 4 5 6 8 9 9 9 7 6 5 7 9 9 10 10 9 7 5 5 5 5 5
0 0 0 1 1 1 2 4 5 5 4 4 4 4 4 4 5 6 7 7 7 6 6 6 8 10 11 11 10 9 9 8 10 12 12 12 12 10 7 6 6 5 5 5
0 0 1 2 2 1 2 3 3 3 3 3 3 3 4 5 7 8 9 10 10 10 9 8 10 12 13 12 11 11 11 12 13 13 13 13 11 9 7 6 5 5 4 4
0 0 1 2 2 2 1 2 2 2 3 4 4 5 5 6 8 10 11 11 12 12 11 10 10 11 12 11 11 11 12 12 12 12 12 11 9 8 7 6 5 4 4 3
1 1 2 2 2 2 2 2 2 3 4 5 5 6 7 8 9 10 11 11 11 11 10 9 9 9 9 9 9 10 11 11 11 10 10 9 8 8 8 7 6 5 5 4
2 2 2 2 1 2 2 3 3 4 4 4 5 6 7 8 9 10 9 8 8 7 7 7 7 8 8 8 8 9 10 11 11 11 11 10 9 9 9 8 8 7 6 6
2 2 2 1 1 2 3 4 5 5 4 4 4 5 6 7 9 10 9 8 7 6 5 6 6 6 8 9 9 9 10 11 12 13 13 11 10 9 8 8 7 7 6 6
1 1 1 2 2 2 3 4 5 6 5 4 4 5 5 6 7 8 9 8 7 6 6 6 6 6 7 7 8 9 10 11 13 14 14 13 10 8 7 6 5 4 4 4
1 2 2 3 4 4 4 5 7 8 6 5 5 5 6 6 6 6 6 7 7 6 5 6 6 7 7 6 6 7 8 11 14 16 15 13 11 8 7 5 3 2 2 1
1 2 3 3 3 4 5 7 11 12 10 8 7 7 7 7 6 5 5 5 5 5 5 5 7 8 9 8 7 7 9 11 14 16 15 12 10 8 6 5 4 3 1 0
1 1 1 1 1 2 4 8 11 13 11 9 7 7 7 6 5 5 5 5 5 4 4 5 7 9 10 11 10 10 10 12 13 14 12 10 8 6 6 5 5 4 2 1
0 0 0 0 0 1 3 7 11 12 10 8 6 5 5 4 4 4 5 5 5 4 5 6 7 8 9 11 11 11 11 12 12 11 10 8 7 6 6 6 5 5 4 3
1 0 0 0 0 1 2 7 11 10 8 7 5 4 4 4 4 4 5 5 6 6 5 5 6 6 7 9 10 11 12 12 11 11 10 9 8 7 7 7 6 6 5 5
1 1 1 0 0 1 2 5 8 8 6 5 5 4 3 3 4 4 5 6 8 8 6 5 5 5 7 9 9 10 12 13 13 13 12 10 9 8 9 8 8 7 7 6
1 1 1 0 0 1 2 3 5 6 5 5 4 3 3 3 4 6 7 7 8 7 6 5 4 5 7 8 9 9 10 11 12 13 13 11 10 10 10 10 9 9 9 8
1 1 1 1 1 2 3 3 5 6 5 4 3 3 3 3 4 6 7 7 6 5 5 5 5 6 6 7 9 10 9 9 10 10 11 11 11 11 11 10 10 10 9 9
0 0 0 1 3 4 4 4 5 5 5 4 3 2 2 2 3 4 5 5 4 5 6 7 7 7 6 7 9 10 10 9 8 7 7 8 9 8 8 8 8 8 8 8
0 0 0 2 5 5 4 5 5 5 4 3 2 1 1 1 1 2 3 4 4 5 6 7 7 6 6 7 9 10 9 7 5 4 4 4 4 4 4 4 4 4 5 5
1 1 1 2 4 4 4 4 4 3 2 1 1 1 0 0 1 2 2 3 4 4 5 5 5 4 4 6 8 8 6 4 3 3 3 3 2 2 1 1 2 2 3 3
1 1 1 2 2 3 3 3 2 2 1 1 0 0 0 0 1 1 2 3 3 2 2 2 2 2 3 4 4 4 3 2 2 2 2 2 2 2 1 1 2 2 2 2
2 2 2 2 2 2 2 2 1 1 1 0 0 0 0 0 1 1 1 2 1 1 1 0 0 1 1 2 2 2 1 1 1 1 1 2 2 2 1 1 2 2 2 2
2 2 2 2 1 1 1 1 1 0 0 0 0 0 0 1 1 1 1 1 0 0 0 0 0 0 1 1 1 1 1 1 1 1 1 1 1 1 1 1 1 2 2 2
2 3 3 2 1 1 1 1 0 0 0 0 0 0 0 1 1 2 1 1 0 0 0 0 0 1 1 1 1 1 1 1 1 1 1 1 1 1 1 1 1 2 2 2
Wind_Speed
4 4 2 1 2 2 2 5 6 6 6 8 8 7 7 7 7 7 7 7 7 7 6 5 5 5 5 5 5 6 5 5 5 5 4 3 3 3 3 3 4 4 3 3
2 2 2 2 2 2 2 2 3 4 3 5 5 5 6 7 8 8 7 8 8 7 7 6 6 5 5 5 5 5 5 5 4 3 3 3 3 3 3 3 3 3 4 3
2 3 4 3 4 3 1 2 5 5 6 4 5 6 7 8 8 8 8 7 7 8 7 7 7 6 6 5 4 5 5 4 4 4 3 4 4 3 3 3 3 3 3 3
1 2 3 8 4 3 3 1 0 3 5 7 8 6 4 6 8 7 6 6 6 6 6 6 7 6 5 4 4 4 4 4 4 4 4 3 3 3 3 3 3 3 4 4
4 2 5 6 3 1 4 2 1 4 4 6 7 7 4 1 4 5 5 5 6 6 5 6 6 7 6 5 5 4 4 4 4 4 4 4 4 4 3 3 3 3 3 4
4 3 5 6 5 1 7 0 3 4 5 6 7 4 3 2 3 4 4 4 4 4 4 4 4 6 6 5 5 5 6 5 4 4 4 4 4 3 2 2 3 3 3 3
4 3 6 6 5 3 4 6 3 3 5 6 5 6 5 4 3 3 3 3 4 4 4 4 5 6 6 5 6 6 5 4 4 4 4 4 3 2 2 2 2 2 2 3
4 4 8 5 2 3 5 3 2 3 4 6 5 5 4 4 4 4 3 3 4 4 3 2 4 5 5 5 5 4 4 4 4 4 4 3 3 3 2 2 2 2 2 3
6 7 6 1 2 2 3 4 3 4 4 6 5 4 4 4 3 3 3 3 3 3 2 2 3 4 4 4 3 4 4 4 4 4 4 3 4 4 3 3 3 3 3 3
1 2 2 2 3 4 3 3 3 4 5 6 4 3 3 4 3 3 2 2 3 3 2 1 2 3 4 3 3 4 4 4 4 4 3 3 3 3 3 4 3 3 3 4
1 2 4 5 3 2 3 4 4 4 4 4 4 3 3 3 2 2 2 1 2 3 2 2 2 2 2 2 3 4 4 4 4 4 4 4 3 3 4 4 5 5 4 4
4 4 2 3 4 2 3 2 3 4 3 2 3 3 3 2 2 2 2 2 2 2 2 2 2 2 2 3 4 4 4 4 4 4 3 3 3 3 3 4 5 6 6 5
4 3 3 3 3 2 2 1 2 4 3 2 1 2 2 2 2 2 2 2 3 3 3 3 3 3 3 3 4 5 5 5 4 4 4 4 4 4 4 3 4 4 6 7
1 1 1 2 3 3 2 2 3 3 2 2 1 1 2 1 1 1 2 3 3 3 3 3 3 4 4 4 4 5 6 6 6 5 5 5 5 5 4 4 3 3 4 5
1 2 3 2 2 3 2 2 3 2 2 2 1 1 1 1 1 2 3 2 1 2 3 3 4 5 4 4 5 6 6 5 5 5 5 5 4 4 4 4 4 3 2 2
2 1 1 1 2 2 1 1 1 1 1 1 1 1 1 1 2 2 2 1 2 3 4 3 5 5 4 5 5 5 5 8 6 5 4 4 4 4 4 4 4 4 4 3
1 2 2 2 2 2 1 2 2 2 2 2 2 2 1 1 2 3 4 3 3 4 4 4 5 5 4 5 5 4 5 5 7 5 4 4 4 4 4 4 4 4 4 4
4 4 3 3 3 2 2 2 2 2 2 3 3 2 2 3 4 5 5 4 3 4 4 5 4 4 4 4 4 4 4 4 4 5 4 4 4 4 4 4 4 4 3 3
1 1 1 2 2 2 3 3 3 3 3 3 3 3 4 4 4 5 4 3 4 5 5 5 5 3 4 5 4 3 3 4 4 4 4 5 4 4 3 3 3 3 3 3
1 1 1 2 2 2 3 3 3 3 3 3 3 3 3 4 4 4 3 4 5 5 5 5 4 3 4 5 5 3 4 4 4 4 3 4 4 4 4 4 4 4 3 3
1 1 1 2 3 2 2 3 3 3 3 3 3 4 4 4 3 3 3 4 5 5 4 5 3 3 3 3 4 3 3 3 3 3 3 3 3 3 3 3 3 4 4 4
1 1 1 2 1 2 2 2 1 2 3 3 4 4 4 4 4 3 4 4 5 5 3 3 3 4 4 3 2 3 3 3 3 3 3 3 3 3 3 4 4 4 4 4
1 2 2 2 1 2 2 2 2 2 3 3 4 5 5 4 3 3 4 4 3 4 3 3 4 5 4 2 2 2 3 3 3 3 3 3 3 3 3 4 4 4 3 3
0 1 1 2 1 2 3 3 3 2 3 3 4 4 3 3 3 3 3 4 4 4 3 3 3 3 3 2 2 2 2 2 2 2 3 3 3 3 3 3 3 3 3 3
1 1 2 2 2 2 3 3 3 3 3 2 3 3 3 3 3 3 2 2 3 3 2 2 3 3 2 1 1 1 1 2 2 2 2 2 2 2 3 2 2 2 2 2
2 2 3 3 3 2 2 2 2 2 1 2 2 2 2 1 1 1 1 1 1 1 1 1 1 1 1 1 1 1 1 1 1 1 1 1 2 2 2 2 2 2 2 2
3 2 2 3 3 2 1 1 1 1 1 1 1 2 1 1 1 1 1 1 1 1 0 1 1 1 0 0 0 0 0 0 0 0 1 1 1 1 1 2 1 1 1 1
Wind_Direction
206 219 206 220 257 246 179 182 181 209 189 208 195 175 160 143 129 130 141 145 156 160 157 153 153 157 162 167 167 163 162 172 189 195 191 186 193 199 198 195 196 192 189 200
341 342 18 326 276 257 232 182 170 156 218 221 185 140 127 137 141 143 153 162 163 162 157 157 161 165 162 161 162 153 158 172 176 172 179 191 203 201 200 205 203 191 191 200
279 315 30 296 243 204 226 206 168 181 210 164 133 145 158 159 157 155 159 159 164 170 171 170 167 167 171 172 159 156 167 174 173 173 181 195 199 192 204 211 206 206 205 205
135 47 227 244 251 147 116 31 159 164 164 156 158 158 150 151 154 159 158 155 162 172 179 174 165 161 163 160 156 161 170 183 187 187 198 200 196 205 212 205 206 216 216 216
120 167 275 291 290 169 124 347 12 128 140 144 131 87 46 134 151 162 166 164 166 175 180 170 162 160 154 163 169 169 181 194 199 198 202 203 208 213 211 208 220 222 215 215
128 155 227 254 281 217 105 1 288 133 140 149 118 116 226 221 161 145 148 160 157 156 148 157 167 154 151 167 175 190 197 199 196 192 197 209 213 209 209 209 219 216 225 223
155 194 254 259 286 46 121 215 246 149 141 136 145 176 193 163 137 132 139 143 136 134 147 172 167 152 164 180 197 202 192 185 190 195 198 196 191 189 186 196 201 215 227 237
153 183 247 284 39 134 200 196 135 111 112 116 131 140 138 131 129 121 111 110 125 134 147 155 152 154 169 199 210 186 175 184 196 197 196 187 179 191 193 189 200 224 234 257
181 209 238 288 127 163 147 120 114 109 103 109 115 129 128 124 122 124 128 122 123 130 141 150 165 166 189 215 197 177 176 193 202 198 197 186 183 194 198 198 206 225 227 239
56 299 326 18 59 55 68 100 109 113 109 101 105 122 121 115 109 106 115 132 130 127 137 196 206 198 209 214 191 181 192 204 203 197 200 196 194 196 198 205 211 218 225 234
30 311 358 356 5 42 54 74 90 91 99 112 115 119 133 136 142 144 136 143 144 151 175 212 216 216 218 203 182 193 206 210 204 201 200 201 203 212 214 221 217 215 223 222
219 239 200 273 310 7 55 56 98 95 85 94 123 140 136 153 170 162 158 154 147 162 188 217 216 227 233 216 199 201 211 215 210 206 203 205 205 238 254 244 251 240 237 227
203 222 209 263 316 1 63 52 91 100 120 128 116 134 139 162 181 168 165 171 183 199 207 213 213 233 241 227 216 214 216 215 209 205 204 207 209 211 240 269 268 260 251 241
207 100 10 324 312 331 26 52 74 68 80 114 125 109 117 123 139 186 211 213 205 201 215 219 222 242 243 227 225 229 227 219 212 208 208 211 214 217 221 227 245 257 258 239
240 179 209 232 296 336 13 57 67 56 56 56 71 86 115 148 226 254 251 232 213 226 238 232 235 249 246 231 230 231 227 224 215 211 212 214 217 218 223 226 228 234 236 242
219 256 268 281 305 317 357 61 108 233 186 149 147 205 233 233 248 270 279 253 221 238 244 239 244 249 246 233 233 236 229 226 217 214 214 214 215 217 219 216 219 225 226 221
154 274 280 278 285 298 275 207 191 212 209 202 219 225 240 277 286 283 280 270 248 246 246 240 248 251 244 231 229 235 229 221 216 219 217 216 218 222 221 217 216 221 228 217
202 215 221 221 227 249 278 236 192 204 217 216 211 210 220 231 249 261 266 271 274 271 262 250 249 255 251 241 232 234 226 222 216 216 218 220 220 221 220 217 216 220 231 220
208 210 250 267 238 228 246 244 232 232 242 232 217 219 228 233 241 249 249 250 253 261 263 258 261 255 252 253 242 225 221 223 224 222 219 219 218 214 213 214 214 212 210 208
324 281 275 286 292 273 252 245 237 239 244 232 223 227 246 257 257 257 252 252 246 242 247 253 254 251 255 258 249 235 222 216 217 220 217 215 212 212 211 212 212 211 209 207
333 325 308 306 301 290 255 238 225 236 245 235 226 235 247 258 260 255 252 265 269 262 257 253 251 253 254 254 242 231 222 219 218 218 216 212 210 212 213 212 213 217 216 215
296 291 301 304 293 293 283 270 255 259 268 257 248 245 248 256 259 261 250 243 253 258 259 258 257 251 251 259 244 227 219 218 216 216 218 215 210 215 219 219 220 223 221 216
243 264 283 282 267 272 297 304 299 288 270 259 255 251 246 245 238 236 264 261 250 251 258 261 259 255 257 255 237 225 221 224 223 219 219 218 215 215 219 224 225 220 221 221
336 258 287 303 327 329 305 291 288 278 267 264 261 253 243 249 264 254 246 254 260 267 267 254 251 261 263 257 238 230 226 225 221 210 214 217 213 214 216 218 222 217 218 223
338 311 306 320 318 295 279 283 296 295 293 288 281 269 253 231 236 255 253 244 253 260 256 248 254 263 261 246 234 231 235 234 238 222 213 218 220 218 216 211 211 210 212 214
297 284 274 265 264 271 282 289 288 289 298 308 310 309 302 290 267 269 275 273 262 260 263 269 272 275 261 258 258 250 242 247 239 222 227 237 222 219 222 217 208 206 207 209
304 300 299 301 296 289 289 288 286 294 289 276 284 295 299 305 306 308 315 323 344 341 347 304 291 293 296 301 65 72 49 43 62 107 131 139 156 183 189 190 199 200 191 195